Weather History for KAQW - January, 2014

Change the Weather History Date:

Tuesday, January 14, 2014

  Actual Average Record
Temperature  
Mean Temperature 44 °F -  
Max Temperature 50 °F 26 °F 64 °F (2005)
Min Temperature 37 °F 11 °F -15 °F (2015)
Degree Days  
Heating Degree Days 22    
Moisture  
Dew Point 39 °F    
Average Humidity 89    
Maximum Humidity 100    
Minimum Humidity 50    
Precipitation  
Precipitation 0.43 in - - ()
Sea Level Pressure  
Sea Level Pressure 29.73 in    
Wind  
Wind Speed 5 mph (SW)    
Max Wind Speed 17 mph    
Max Gust Speed 28 mph    
Visibility 6 miles    
Events Fog , Rain    
Averages and records for this station are not official NWS values.
T = Trace of Precipitation, MM = Missing Value Source: NWS Daily Summary

Daily Weather History Graph

Daily Weather History Graph

Search for Another Location

Airport or City:

Trip Planner

Search our weather history database for the weather conditions in past years. The results will help you decide how hot, cold, wet, or windy it might be!

Date:

Astronomy

Jan. 14, 2014 Rise Set
Actual Time 7:20 AM EST 4:43 PM EST
Civil Twilight 6:49 AM EST 5:14 PM EST
Nautical Twilight 6:14 AM EST 5:49 PM EST
Astronomical Twilight 5:40 AM EST 6:23 PM EST
Moon 3:46 PM EST (1/14) 5:52 AM EST (1/14)
Length of Visible Light 10h 25m
Length of Day
9h 22m
Waxing Gibbous, 98% of the Moon is Illuminated
Jan 14
Waxing Gibbous
Jan 15
Full
Jan 24
Last Quarter
Jan 30
New
Feb 6
First Quarter

Hourly Weather History & Observations

Time (EST) Temp. Windchill Dew Point Humidity Pressure Visibility Wind Dir Wind Speed Gust Speed Precip Events Conditions
12:52 AM 46.9 °F - 32.0 °F 56% 29.81 in 10.0 mi WSW 8.1 mph 18.4 mph N/A   Clear
1:52 AM 50.0 °F - 32.0 °F 50% 29.80 in 10.0 mi Variable 4.6 mph 16.1 mph N/A   Clear
2:52 AM 48.0 °F - 33.1 °F 56% 29.81 in 10.0 mi Variable 6.9 mph - N/A   Mostly Cloudy
3:52 AM 46.9 °F - 33.1 °F 59% 29.78 in 10.0 mi Variable 4.6 mph - N/A   Scattered Clouds
4:52 AM 45.0 °F 41.8 °F 33.1 °F 63% 29.78 in 10.0 mi Variable 5.8 mph - N/A   Overcast
5:52 AM 46.0 °F 43.1 °F 34.0 °F 63% 29.77 in 10.0 mi ESE 5.8 mph - 0.00 in   Overcast
6:52 AM 43.0 °F 41.3 °F 36.0 °F 76% 29.78 in 9.0 mi ESE 3.5 mph - 0.00 in Rain Light Rain
7:52 AM 43.0 °F 38.2 °F 39.0 °F 86% 29.77 in 7.0 mi East 8.1 mph - 0.03 in Rain Light Rain
8:37 AM 42.8 °F - 39.2 °F 87% 29.75 in 10.0 mi Calm Calm - 0.01 in Rain Light Rain
8:52 AM 42.1 °F 40.2 °F 39.9 °F 92% 29.77 in 9.0 mi Variable 3.5 mph - 0.01 in Rain Light Rain
9:12 AM 42.8 °F 39.3 °F 39.2 °F 87% 29.76 in 9.0 mi East 5.8 mph - 0.00 in Rain Light Rain
9:23 AM 42.8 °F 39.3 °F 39.2 °F 87% 29.76 in 9.0 mi SE 5.8 mph - 0.01 in Rain Light Rain
9:52 AM 42.1 °F - 39.9 °F 92% 29.77 in 5.0 mi Calm Calm - 0.02 in Rain Light Rain
10:52 AM 42.1 °F - 41.0 °F 96% 29.75 in 5.0 mi Calm Calm - 0.06 in Rain Light Rain
11:52 AM 43.0 °F 40.3 °F 41.0 °F 93% 29.73 in 7.0 mi ESE 4.6 mph - 0.06 in Rain Light Rain
12:52 PM 43.0 °F - 42.1 °F 97% 29.73 in 2.5 mi Calm Calm - 0.02 in Rain Light Rain
1:13 PM 42.8 °F 41.1 °F 42.8 °F 100% 29.71 in 2.0 mi West 3.5 mph - 0.02 in Rain Light Rain
1:43 PM 42.8 °F 41.1 °F 42.8 °F 100% 29.68 in 3.0 mi ESE 3.5 mph - 0.04 in Rain Light Rain
1:52 PM 43.0 °F 41.3 °F 42.1 °F 97% 29.69 in 5.0 mi ESE 3.5 mph - 0.04 in Rain Light Rain
2:11 PM 42.8 °F - 42.8 °F 100% 29.68 in 6.0 mi Calm Calm - 0.00 in   Overcast
2:18 PM 42.8 °F - 42.8 °F 100% 29.68 in 6.0 mi Calm Calm - 0.00 in   Overcast
2:27 PM 42.8 °F - 42.8 °F 100% 29.68 in 5.0 mi Calm Calm - 0.00 in   Overcast
2:38 PM 42.8 °F - 42.8 °F 100% 29.67 in 1.0 mi Calm Calm - 0.00 in   Overcast
2:45 PM 42.8 °F - 42.8 °F 100% 29.67 in 0.5 mi Calm Calm - 0.01 in Fog , Rain Light Rain
2:52 PM 42.1 °F - 41.0 °F 96% 29.68 in 0.5 mi Calm Calm - 0.01 in Fog , Rain Light Rain
3:14 PM 42.8 °F - 42.8 °F 100% 29.68 in 1.0 mi Calm Calm - 0.02 in Rain Light Rain
3:19 PM 42.8 °F - 42.8 °F 100% 29.68 in 0.8 mi Calm Calm - 0.02 in Rain Light Rain
3:32 PM 42.8 °F - 42.8 °F 100% 29.68 in 0.2 mi Calm Calm - 0.04 in Fog , Rain Light Rain
3:37 PM 42.8 °F - 42.8 °F 100% 29.68 in 0.5 mi Calm Calm - 0.05 in Fog , Rain Light Rain
3:52 PM 42.1 °F 37.7 °F 42.1 °F 100% 29.70 in 1.0 mi West 6.9 mph - 0.08 in Rain Light Rain
3:55 PM 42.8 °F 39.3 °F 41.0 °F 93% 29.69 in 1.5 mi West 5.8 mph - 0.00 in Rain Light Rain
3:59 PM 42.8 °F 41.1 °F 41.0 °F 93% 29.70 in 3.0 mi Variable 3.5 mph - 0.00 in Rain Light Rain
4:07 PM 42.8 °F 39.3 °F 41.0 °F 93% 29.69 in 3.0 mi WSW 5.8 mph - 0.01 in Rain Light Rain
4:33 PM 42.8 °F - 41.0 °F 93% 29.69 in 6.0 mi Calm Calm - 0.02 in Rain Light Rain
4:41 PM 42.8 °F 41.1 °F 39.2 °F 87% 29.69 in 8.0 mi SW 3.5 mph - 0.03 in Rain Light Rain
4:52 PM 41.0 °F 39.0 °F 39.9 °F 96% 29.70 in 8.0 mi SW 3.5 mph - 0.04 in Rain Light Rain
5:52 PM 41.0 °F 39.0 °F 39.0 °F 93% 29.69 in 10.0 mi SSW 3.5 mph - 0.02 in Rain Light Rain
6:52 PM 39.9 °F 36.7 °F 39.0 °F 97% 29.70 in 7.0 mi SW 4.6 mph - 0.01 in Rain Light Rain
7:07 PM 39.2 °F - 39.2 °F 100% 29.69 in 7.0 mi Calm Calm - 0.00 in Rain Light Rain
7:52 PM 41.0 °F 38.0 °F 39.0 °F 93% 29.70 in 10.0 mi West 4.6 mph - 0.01 in   Overcast
8:52 PM 41.0 °F 35.2 °F 37.9 °F 89% 29.75 in 10.0 mi West 9.2 mph - 0.01 in Rain Light Rain
9:52 PM 39.0 °F 32.8 °F 36.0 °F 89% 29.79 in 10.0 mi West 9.2 mph - 0.01 in   Overcast
10:06 PM 39.2 °F 31.6 °F 35.6 °F 87% 29.77 in 10.0 mi WSW 12.7 mph - N/A   Overcast
10:52 PM 39.0 °F 32.3 °F 34.0 °F 82% 29.81 in 10.0 mi WSW 10.4 mph - N/A   Overcast
11:05 PM 37.4 °F 28.9 °F 33.8 °F 87% 29.79 in 10.0 mi WSW 13.8 mph 20.7 mph N/A   Overcast
11:20 PM 37.4 °F 29.8 °F 33.8 °F 87% 29.80 in 10.0 mi West 11.5 mph - N/A   Overcast
11:41 PM 37.4 °F 28.2 °F 32.0 °F 81% 29.80 in 10.0 mi West 16.1 mph 23.0 mph N/A   Mostly Cloudy
11:52 PM 37.9 °F 28.5 °F 30.9 °F 76% 29.81 in 10.0 mi WSW 17.3 mph 27.6 mph N/A   Scattered Clouds